This demonstration page uses our WeatherBlox Daily Observations layout. Learn more.

Left ArrowRight Arrow

Hourly Observations for November 26, 2021

Temp ( °F °C ) Dew Point ( °F °C ) Humidity (%) Winds ( mph kmh ) Pressure ( in mb ) Visibility ( mi km ) Precip ( " mm )
12:56 am 00:56 Clear 32 0 22 -5.6 66 66 SW 7 11 30.19 1022 10 16 0.00 0.00
1:56 am 01:56 Clear 31 -0.6 22 -5.6 69 69 SW 12 19 30.16 1021 10 16 0.00 0.00
2:56 am 02:56 Clear 31 -0.6 22 -5.6 69 69 WSW 5 7 30.15 1021 10 16 0.00 0.00
3:56 am 03:56 Clear 29 -1.7 21 -6.1 72 72 SW 7 11 30.12 1020 10 16 0.00 0.00
4:56 am 04:56 Clear 30 -1.1 21 -6.1 69 69 SW 9 15 30.12 1020 10 16 0.00 0.00
5:56 am 05:56 Clear 33 0.6 20 -6.7 58 58 W 7 11 30.11 1020 10 16 0.00 0.00
6:56 am 06:56 Clear 39 3.9 18 -7.8 43 43 WSW 7 11 30.10 1019 10 16 0.00 0.00
7:56 am 07:56 Sunny 43 6.1 19 -7.2 38 38 W 14 22 30.08 1019 10 16 0.00 0.00
8:56 am 08:56 Sunny 47 8.3 19 -7.2 33 33 WNW 14 22 30.06 1018 10 16 0.00 0.00
9:56 am 09:56 Sunny 53 11.7 18 -7.8 25 25 W 13 20 30.04 1017 10 16 0.00 0.00
10:56 am 10:56 Sunny 57 13.9 20 -6.7 24 24 W 12 19 30.03 1017 10 16 0.00 0.00
11:56 am 11:56 Sunny 58 14.4 23 -5 26 26 WSW 15 24 29.99 1016 10 16 0.00 0.00
12:56 pm 12:56 Sunny 62 16.7 23 -5 22 22 W 13 20 29.96 1015 10 16 0.00 0.00
1:56 pm 13:56 Sunny 65 18.3 24 -4.4 21 21 WNW 13 20 29.92 1013 10 16 0.00 0.00
2:56 pm 14:56 Sunny 63 17.2 25 -3.9 24 24 W 7 11 29.93 1014 10 16 0.00 0.00
3:56 pm 15:56 Sunny 65 18.3 24 -4.4 21 21 WSW 8 13 29.91 1013 10 16 0.00 0.00
4:56 pm 16:56 Sunny 60 15.6 25 -3.9 26 26 SW 3 6 29.91 1013 10 16 0.00 0.00
5:56 pm 17:56 Clear 57 13.9 24 -4.4 28 28 WSW 6 9 29.92 1013 10 16 0.00 0.00
6:56 pm 18:56 Clear 55 12.8 24 -4.4 30 30 SW 7 11 29.89 1012 10 16 0.00 0.00
7:56 pm 19:56 Clear 50 10 24 -4.4 36 36 SW 5 7 29.88 1012 10 16 0.00 0.00
8:56 pm 20:56 Clear 51 10.6 24 -4.4 35 35 W 6 9 29.88 1012 10 16 0.00 0.00
9:56 pm 21:56 Clear 52 11.1 23 -5 32 32 WSW 7 11 29.86 1011 10 16 0.00 0.00
10:56 pm 22:56 Clear 50 10 24 -4.4 36 36 SW 8 13 29.85 1011 10 16 0.00 0.00
11:56 pm 23:56 Clear 50 10 24 -4.4 36 36 NW 8 13 29.86 1011 10 16 0.00 0.00

Powered by AerisWeather